TimeEDT,TemperatureF,Dew PointF,Humidity,Sea Level PressureIn,VisibilityMPH,Wind Direction,Wind SpeedMPH,Gust SpeedMPH,PrecipitationIn,Events,Conditions,WindDirDegrees,DateUTC
12:15 AM,75.7,62.2,63,29.83,10.0,West,4.6,-,N/A,,Clear,260,2013-05-16 04:15:00
12:35 AM,74.8,61.9,64,29.83,10.0,West,4.6,-,N/A,,Clear,260,2013-05-16 04:35:00
12:55 AM,73.6,61.2,65,29.83,10.0,West,5.8,-,N/A,,Clear,260,2013-05-16 04:55:00
1:15 AM,74.7,59.2,58,29.82,10.0,West,5.8,-,N/A,,Clear,260,2013-05-16 05:15:00
1:35 AM,74.7,58.6,57,29.82,10.0,Calm,Calm,-,N/A,,Clear,0,2013-05-16 05:35:00
1:55 AM,70.2,60.8,72,29.82,10.0,SSE,3.5,-,N/A,,Clear,160,2013-05-16 05:55:00
2:15 AM,69.3,60.4,73,29.82,10.0,Calm,Calm,-,N/A,,Clear,0,2013-05-16 06:15:00
2:35 AM,68.9,60.1,73,29.83,10.0,South,5.8,-,N/A,,Clear,190,2013-05-16 06:35:00
2:55 AM,70.0,60.3,71,29.82,10.0,SW,3.5,-,N/A,,Clear,220,2013-05-16 06:55:00
3:15 AM,70.0,59.7,70,29.82,10.0,Calm,Calm,-,N/A,,Clear,0,2013-05-16 07:15:00
3:35 AM,70.0,59.2,68,29.83,10.0,Calm,Calm,-,N/A,,Clear,0,2013-05-16 07:35:00
3:55 AM,65.8,59.7,81,29.82,10.0,Calm,Calm,-,N/A,,Clear,0,2013-05-16 07:55:00
4:15 AM,70.0,58.1,66,29.82,10.0,West,3.5,-,N/A,,Clear,260,2013-05-16 08:15:00
4:35 AM,68.2,58.5,71,29.82,10.0,West,4.6,-,N/A,,Clear,260,2013-05-16 08:35:00
4:55 AM,69.8,57.2,64,29.82,10.0,Calm,Calm,-,N/A,,Clear,0,2013-05-16 08:55:00
5:15 AM,64.0,57.7,80,29.83,10.0,Calm,Calm,-,N/A,,Clear,0,2013-05-16 09:15:00
5:35 AM,64.0,58.1,81,29.83,10.0,Calm,Calm,-,N/A,,Clear,0,2013-05-16 09:35:00
5:55 AM,63.0,58.1,84,29.84,10.0,Calm,Calm,-,N/A,,Clear,0,2013-05-16 09:55:00
6:15 AM,61.9,57.9,87,29.84,10.0,Calm,Calm,-,N/A,,Clear,0,2013-05-16 10:15:00
6:35 AM,60.1,57.6,91,29.86,10.0,Calm,Calm,-,N/A,,Clear,0,2013-05-16 10:35:00
6:55 AM,60.6,58.3,92,29.87,10.0,Calm,Calm,-,N/A,,Clear,0,2013-05-16 10:55:00
7:15 AM,62.8,59.4,89,29.87,10.0,Calm,Calm,-,N/A,,Clear,0,2013-05-16 11:15:00
7:35 AM,68.2,60.1,75,29.88,10.0,Calm,Calm,-,N/A,,Clear,0,2013-05-16 11:35:00
7:55 AM,71.1,59.9,68,29.89,10.0,Calm,Calm,-,N/A,,Clear,0,2013-05-16 11:55:00
8:15 AM,73.4,59.9,63,29.89,10.0,Calm,Calm,-,N/A,,Clear,0,2013-05-16 12:15:00
8:35 AM,73.8,60.6,63,29.89,10.0,Calm,Calm,-,N/A,,Clear,0,2013-05-16 12:35:00
8:55 AM,75.2,61.7,63,29.90,10.0,Calm,Calm,-,N/A,,Clear,0,2013-05-16 12:55:00
9:15 AM,77.0,62.2,60,29.89,10.0,Calm,Calm,-,N/A,,Clear,0,2013-05-16 13:15:00
9:35 AM,77.2,63.1,62,29.89,10.0,Calm,Calm,-,N/A,,Clear,0,2013-05-16 13:35:00
9:55 AM,79.3,61.3,54,29.89,10.0,Calm,Calm,-,N/A,,Clear,0,2013-05-16 13:55:00
10:15 AM,80.6,62.1,53,29.89,10.0,Calm,Calm,-,N/A,,Clear,0,2013-05-16 14:15:00
10:35 AM,82.4,60.3,47,29.90,10.0,WSW,3.5,-,N/A,,Clear,250,2013-05-16 14:35:00
10:55 AM,83.1,58.8,44,29.90,10.0,NW,6.9,-,N/A,,Clear,320,2013-05-16 14:55:00
11:15 AM,83.3,59.7,45,29.91,10.0,West,5.8,-,N/A,,Clear,270,2013-05-16 15:15:00
11:35 AM,84.2,59.5,43,29.90,10.0,West,6.9,-,N/A,,Clear,270,2013-05-16 15:35:00
11:55 AM,83.3,59.9,45,29.91,10.0,WNW,3.5,-,N/A,,Scattered Clouds,290,2013-05-16 15:55:00
12:15 PM,83.5,59.5,44,29.91,10.0,West,6.9,-,N/A,,Scattered Clouds,260,2013-05-16 16:15:00
12:35 PM,84.4,59.9,43,29.91,10.0,SW,5.8,-,N/A,,Clear,220,2013-05-16 16:35:00
12:55 PM,85.8,59.5,41,29.89,10.0,SW,5.8,-,N/A,,Clear,230,2013-05-16 16:55:00
1:15 PM,84.6,60.4,44,29.89,10.0,SSW,5.8,-,N/A,,Scattered Clouds,200,2013-05-16 17:15:00
1:35 PM,84.2,60.1,44,29.88,10.0,SSW,4.6,-,N/A,,Clear,210,2013-05-16 17:35:00
1:55 PM,84.6,60.3,44,29.87,10.0,SW,3.5,-,N/A,,Scattered Clouds,220,2013-05-16 17:55:00
2:15 PM,84.4,61.3,46,29.88,10.0,SW,3.5,-,N/A,,Clear,230,2013-05-16 18:15:00
2:35 PM,85.3,59.5,42,29.88,10.0,WSW,5.8,-,N/A,,Clear,250,2013-05-16 18:35:00
3:15 PM,86.0,63.3,47,29.88,10.0,West,6.9,-,N/A,,Mostly Cloudy,280,2013-05-16 19:15:00
3:35 PM,85.5,61.5,44,29.88,10.0,West,6.9,-,N/A,,Mostly Cloudy,270,2013-05-16 19:35:00
3:55 PM,82.6,60.1,46,29.87,10.0,WNW,5.8,-,N/A,,Scattered Clouds,290,2013-05-16 19:55:00
4:15 PM,81.5,60.3,48,29.88,10.0,West,6.9,-,N/A,,Clear,280,2013-05-16 20:15:00
4:35 PM,80.4,62.1,53,29.88,10.0,WNW,6.9,-,N/A,,Scattered Clouds,300,2013-05-16 20:35:00
4:55 PM,79.3,62.8,57,29.88,10.0,SW,5.8,-,N/A,,Mostly Cloudy,220,2013-05-16 20:55:00
5:15 PM,80.6,64.0,57,29.89,10.0,SW,4.6,-,N/A,,Scattered Clouds,220,2013-05-16 21:15:00
5:35 PM,80.6,64.9,59,29.90,10.0,WSW,5.8,-,N/A,,Clear,250,2013-05-16 21:35:00
6:15 PM,77.0,63.3,63,29.90,10.0,WSW,9.2,-,N/A,,Clear,240,2013-05-16 22:15:00
6:35 PM,75.7,63.7,66,29.91,10.0,Calm,Calm,-,N/A,,Clear,0,2013-05-16 22:35:00
6:55 PM,75.4,64.2,68,29.91,10.0,Calm,Calm,-,N/A,,Scattered Clouds,0,2013-05-16 22:55:00
7:15 PM,74.3,63.9,70,29.92,10.0,WSW,3.5,-,N/A,,Clear,240,2013-05-16 23:15:00
7:35 PM,73.4,64.0,72,29.93,10.0,SSW,3.5,-,N/A,,Clear,210,2013-05-16 23:35:00
7:55 PM,72.5,63.7,74,29.93,10.0,Calm,Calm,-,N/A,,Clear,0,2013-05-16 23:55:00
8:15 PM,71.6,63.7,76,29.94,10.0,West,3.5,-,N/A,,Clear,260,2013-05-17 00:15:00
8:35 PM,70.9,63.5,77,29.94,10.0,Calm,Calm,-,N/A,,Clear,0,2013-05-17 00:35:00
8:55 PM,68.5,63.5,84,29.94,10.0,Calm,Calm,-,N/A,,Clear,0,2013-05-17 00:55:00
9:15 PM,68.2,64.0,87,29.95,10.0,Calm,Calm,-,N/A,,Clear,0,2013-05-17 01:15:00
9:35 PM,68.9,64.0,84,29.95,10.0,Calm,Calm,-,N/A,,Clear,0,2013-05-17 01:35:00
9:55 PM,68.0,64.2,88,29.96,10.0,NW,4.6,-,N/A,,Clear,310,2013-05-17 01:55:00
10:15 PM,68.0,63.7,86,29.97,10.0,NW,4.6,-,N/A,,Clear,310,2013-05-17 02:15:00
10:35 PM,66.2,63.0,89,29.97,10.0,NW,5.8,-,N/A,,Clear,310,2013-05-17 02:35:00
10:55 PM,64.8,62.2,92,29.98,10.0,WNW,5.8,-,N/A,,Clear,300,2013-05-17 02:55:00
11:15 PM,64.6,62.2,92,29.98,10.0,Calm,Calm,-,N/A,,Clear,0,2013-05-17 03:15:00
11:35 PM,64.6,62.6,93,29.98,10.0,Calm,Calm,-,N/A,,Clear,0,2013-05-17 03:35:00
11:55 PM,65.7,62.1,88,29.98,10.0,Calm,Calm,-,N/A,,Clear,0,2013-05-17 03:55:00